Rochester, MN

5:13 AM CDT on July 28, 2017 (GMT -0500)
Rochester International

Weather History for KRST - April, 2013

Change the Weather History Date:

Monday, April 22, 2013

  Actual Average Record
Temperature  
Mean Temperature 39 °F 50 °F  
Max Temperature 46 °F 60 °F 91 °F (1980)
Min Temperature 32 °F 39 °F 20 °F (1936)
Degree Days  
Heating Degree Days 26 15  
Month to date heating degree days 627 444  
Since 1 July heating degree days 7344 7316  
Cooling Degree Days 0 0  
Month to date cooling degree days 0 0  
Year to date cooling degree days 0 0  
Moisture  
Dew Point 38 °F    
Average Humidity 91    
Maximum Humidity 96    
Minimum Humidity 86    
Precipitation  
Precipitation 0.54 in 0.12 in 1.50 in (1999)
Month to date precipitation 6.19 2.26  
Year to date precipitation 11.04 5.83  
Snow  
Snow T in 0.10 in 2.20 in (1963)
Month to date snowfall 4.2 2.8  
Since 1 July snowfall 59.5 51.4  
Snow Depth 0.00 in    
Sea Level Pressure  
Sea Level Pressure 30.11 in    
Wind  
Wind Speed 13 mph (North)    
Max Wind Speed 24 mph    
Max Gust Speed 31 mph    
Visibility 3 miles    
Events Rain , Snow    
T = Trace of Precipitation, MM = Missing Value Source: NWS Daily Summary

Daily Weather History Graph

Daily Weather History Graph

Search for Another Location

Airport or City:

Trip Planner

Search our weather history database for the weather conditions in past years. The results will help you decide how hot, cold, wet, or windy it might be!

Date:

Astronomy

Apr. 22, 2013 Rise Set
Actual Time 6:15 AM CDT 8:02 PM CDT
Civil Twilight 5:44 AM CDT 8:33 PM CDT
Nautical Twilight 5:06 AM CDT 9:10 PM CDT
Astronomical Twilight 4:26 AM CDT 9:51 PM CDT
Moon 4:46 PM CDT (4/22) 4:16 AM CDT (4/22)
Length of Visible Light 14h 49m
Length of Day
13h 47m
Waxing Gibbous, 88% of the Moon is Illuminated
Apr 22
Waxing Gibbous
Apr 25
Full
May 2
Last Quarter
May 9
New
May 17
First Quarter

Hourly Weather History & Observations

Time (CDT) Temp. Windchill Dew Point Humidity Pressure Visibility Wind Dir Wind Speed Gust Speed Precip Events Conditions
12:19 AM 48.2 °F - 46.4 °F 93% 30.14 in 7.0 mi SW 8.1 mph - N/A   Overcast
12:28 AM 46.4 °F 41.5 °F 44.6 °F 93% 30.14 in 6.0 mi West 10.4 mph - N/A   Overcast
12:37 AM 46.4 °F 41.5 °F 42.8 °F 87% 30.14 in 9.0 mi West 10.4 mph - N/A   Overcast
12:51 AM 46.4 °F 41.9 °F 42.8 °F 87% 30.15 in 9.0 mi WNW 9.2 mph - N/A   Overcast
12:54 AM 46.0 °F 41.9 °F 43.0 °F 89% 30.17 in 8.0 mi WNW 8.1 mph - N/A   Overcast
1:54 AM 44.1 °F 40.1 °F 41.0 °F 89% 30.17 in 6.0 mi West 6.9 mph - N/A   Overcast
2:18 AM 44.6 °F 40.2 °F 41.0 °F 87% 30.14 in 6.0 mi WNW 8.1 mph - N/A   Overcast
2:54 AM 43.0 °F 38.2 °F 41.0 °F 93% 30.16 in 5.0 mi NNW 8.1 mph - 0.00 in   Overcast
3:43 AM 42.8 °F 38.6 °F 39.2 °F 87% 30.14 in 2.0 mi NNW 6.9 mph - N/A   Overcast
3:51 AM 41.0 °F 38.0 °F 39.2 °F 93% 30.13 in 1.5 mi North 4.6 mph - N/A   Overcast
3:54 AM 41.0 °F 38.0 °F 39.9 °F 96% 30.16 in 1.2 mi NNW 4.6 mph - N/A   Overcast
4:07 AM 41.0 °F 37.1 °F 39.2 °F 93% 30.13 in 0.8 mi North 5.8 mph - N/A   Overcast
4:47 AM 41.0 °F 35.2 °F 39.2 °F 93% 30.13 in 1.5 mi North 9.2 mph - 0.00 in Rain Light Rain
4:54 AM 39.9 °F 34.5 °F 39.0 °F 97% 30.16 in 1.5 mi North 8.1 mph - 0.00 in Rain Light Rain
5:10 AM 39.2 °F 33.6 °F 39.2 °F 100% 30.14 in 1.2 mi North 8.1 mph - 0.00 in Rain Light Rain
5:18 AM 39.2 °F 34.2 °F 37.4 °F 93% 30.14 in 1.8 mi North 6.9 mph - 0.00 in Rain Light Rain
5:54 AM 39.9 °F 35.1 °F 37.9 °F 93% 30.16 in 2.0 mi North 6.9 mph - 0.01 in Rain Light Rain
6:54 AM 39.9 °F 33.9 °F 37.9 °F 93% 30.18 in 1.5 mi NNE 9.2 mph - 0.00 in Rain Light Rain
7:05 AM 39.2 °F 32.5 °F 37.4 °F 93% 30.15 in 1.2 mi NNE 10.4 mph - 0.00 in Rain Light Rain
7:54 AM 39.0 °F 32.8 °F 37.0 °F 93% 30.19 in 0.8 mi NNE 9.2 mph - 0.00 in Rain Light Rain
8:05 AM 39.2 °F 32.5 °F 37.4 °F 93% 30.16 in 1.0 mi NNE 10.4 mph - 0.00 in Rain Light Rain
8:54 AM 39.0 °F 31.4 °F 37.0 °F 93% 30.18 in 1.0 mi NNE 12.7 mph - 0.00 in Rain Light Rain
9:54 AM 39.0 °F 31.4 °F 37.0 °F 93% 30.17 in 1.5 mi NNE 12.7 mph - 0.00 in Rain Light Rain
10:30 AM 39.2 °F 32.0 °F 37.4 °F 93% 30.15 in 1.2 mi NNE 11.5 mph - 0.00 in Rain Light Rain
10:54 AM 39.9 °F 33.4 °F 37.9 °F 93% 30.17 in 1.2 mi NE 10.4 mph - 0.00 in Rain Light Rain
11:08 AM 39.2 °F 31.2 °F 37.4 °F 93% 30.14 in 1.5 mi NE 13.8 mph - 0.00 in Rain Light Rain
11:54 AM 39.9 °F 32.9 °F 37.9 °F 93% 30.16 in 1.5 mi NE 11.5 mph - 0.00 in Rain Light Rain
12:01 PM 39.2 °F 32.0 °F 37.4 °F 93% 30.13 in 2.0 mi NE 11.5 mph - 0.00 in Rain Light Rain
12:12 PM 41.0 °F 33.9 °F 39.2 °F 93% 30.13 in 1.5 mi ENE 12.7 mph - 0.00 in Rain Light Rain
12:20 PM 41.0 °F 35.2 °F 39.2 °F 93% 30.12 in 1.2 mi ENE 9.2 mph - 0.00 in Rain Light Rain
12:54 PM 41.0 °F 33.9 °F 39.0 °F 93% 30.13 in 1.5 mi ENE 12.7 mph - 0.00 in   Overcast
1:25 PM 41.0 °F 34.3 °F 39.2 °F 93% 30.09 in 1.0 mi NE 11.5 mph - N/A   Overcast
1:46 PM 41.0 °F 33.9 °F 39.2 °F 93% 30.09 in 0.8 mi ENE 12.7 mph - 0.00 in Rain Light Rain
1:54 PM 41.0 °F 34.7 °F 39.9 °F 96% 30.12 in 0.8 mi NE 10.4 mph - 0.00 in Rain Light Rain
2:50 PM 41.0 °F 33.9 °F 39.2 °F 93% 30.05 in 1.0 mi ENE 12.7 mph - 0.03 in Rain Rain
2:54 PM 41.0 °F 33.5 °F 39.9 °F 96% 30.08 in 2.0 mi NE 13.8 mph - 0.04 in Rain Light Rain
3:20 PM 42.8 °F 36.2 °F 39.2 °F 87% 30.04 in 3.0 mi ENE 12.7 mph - 0.00 in Rain Rain
3:29 PM 42.8 °F 36.2 °F 39.2 °F 87% 30.04 in 2.5 mi ENE 12.7 mph - 0.01 in Rain Rain
3:54 PM 42.1 °F 36.1 °F 39.9 °F 92% 30.06 in 3.0 mi NE 10.4 mph - 0.04 in Rain Rain
4:54 PM 41.0 °F 34.3 °F 39.0 °F 93% 30.06 in 3.0 mi North 11.5 mph - 0.05 in Rain Rain
5:09 PM 41.0 °F 33.5 °F 39.2 °F 93% 30.02 in 2.5 mi North 13.8 mph - 0.02 in Rain Rain
5:16 PM 41.0 °F 34.7 °F 39.2 °F 93% 30.02 in 3.0 mi NNW 10.4 mph - 0.03 in Rain Rain
5:54 PM 39.0 °F 30.3 °F 37.0 °F 93% 30.03 in 10.0 mi NNE 16.1 mph - 0.05 in Rain Light Rain
6:54 PM 37.9 °F 28.5 °F 36.0 °F 93% 30.03 in 8.0 mi North 17.3 mph 23.0 mph 0.00 in Rain Light Rain
7:54 PM 36.0 °F 26.0 °F 34.0 °F 93% 30.03 in 8.0 mi North 17.3 mph 25.3 mph 0.00 in Rain Light Rain
8:54 PM 35.1 °F 23.0 °F 32.0 °F 89% 30.04 in 4.0 mi North 24.2 mph 29.9 mph 0.07 in Rain Heavy Rain
9:01 PM 35.6 °F 24.8 °F 32.0 °F 87% 30.01 in 4.0 mi North 19.6 mph 29.9 mph 0.02 in Rain Heavy Rain
9:54 PM 34.0 °F 23.0 °F 30.9 °F 89% 30.06 in 4.0 mi North 18.4 mph 27.6 mph 0.18 in Rain Heavy Rain
10:54 PM 34.0 °F 25.0 °F 30.9 °F 89% 30.05 in 8.0 mi North 12.7 mph 23.0 mph 0.05 in Rain Rain
11:42 PM 33.8 °F 23.5 °F 30.2 °F 87% 30.02 in 1.8 mi NNW 16.1 mph - 0.04 in Snow Light Snow
11:51 PM 33.8 °F 23.5 °F 30.2 °F 87% 30.02 in 2.5 mi NNW 16.1 mph - 0.05 in Snow Light Snow
11:54 PM 33.1 °F 22.6 °F 30.9 °F 92% 30.06 in 2.5 mi NNW 16.1 mph - 0.05 in Snow Light Snow